Weather in Moravska Trebova

Czech Republic     49°45′26″N   16°39′38″E
temp.,
°C
wind,
m/s
gust,
m/s
humid.,
%
clouds,
%
prec.,
mm/h
press.,
hPa
HPBL,
m
22 october, fri
fri2223:00+9wsw715600 0.0 1010732
02:00+9wnw71470100 0.0 10111488
05:00+7wnw5117532 0.1 10131081
08:00+4wsw23870 0.1 101677
11:00+9w710485 0.0 10161410
14:00+10w913405 0.0 10151730
17:00+9wsw814471 0.0 10151457
20:00+7w8145170 0.0 10171069
23 october, sat
sat2323:00+7w8166696 0.0 10181191
02:00+6nw8138599 1.1 10211239
05:00+4wnw613815 0.3 1022604
08:00+3wnw51280100 0.3 1024527
11:00+7wnw710646 0.0 10251112
14:00+8wnw7105193 0.1 10251844
17:00+7wnw6106238 0.1 10261035
20:00+4wnw22825 0.1 102930
24 october, sun
sun2423:00+2wnw22895 0.0 103116
02:00+2wnw11915 0.0 103210
05:00+1wnw11905 0.0 103210
08:00+1se11905 0.0 103310
11:00+6se236519 0.0 1033550
14:00+9se44465 0.0 1031898
17:00+7ese33505 0.0 103066
20:00+4se225858 0.0 103116
25 october, mon
mon2523:00+2e22665 0.0 103112
02:00+1e22765 0.0 103116
05:000e22831 0.0 103021
08:000e22884 0.0 103037
11:00+8sse510505 0.0 1028784
14:00+10sse69394 0.0 1026902
17:00+8sse48465 0.0 1026223
20:00+3se22625 0.0 102712
26 october, tue
tue2623:00+2ese116970 0.0 102710
02:00+1ese1176100 0.0 102710
05:00+1ese1183100 0.0 102710
08:00+1se1187100 0.0 102711
11:00+7s23648 0.0 1026428
14:00+11sw124956 0.0 1025801
17:00+9ne115819 0.0 102412
20:00+5sw00730 0.0 102610